GFSFLT2_850_temp_102.txt.gz
Temp
23 23 22 22 22 22 21 21 20 19 19 18 17 17 16 16 16 16 16 16 15 15 15 15 15 14 14 13 13 13 14 14
23 23 22 22 22 21 21 21 20 19 19 18 17 16 16 16 15 15 15 15 15 14 14 14 14 14 14 13 13 13 13 13
22 22 22 22 22 21 21 20 20 20 19 18 17 16 16 15 15 15 14 15 14 14 14 14 14 14 14 13 13 13 13 13
22 22 21 21 21 21 21 20 21 20 20 19 17 17 16 15 15 14 14 14 14 14 14 14 14 14 14 13 13 13 13 13
22 21 21 21 21 21 20 20 20 20 19 19 18 17 16 15 15 14 14 14 14 14 14 14 14 14 14 14 13 12 13 13
22 21 21 21 20 20 20 20 20 20 20 19 18 17 16 16 15 15 14 14 14 14 13 13 13 13 13 13 13 12 13 13
21 21 21 20 20 20 20 20 20 20 19 19 18 18 17 16 15 15 15 14 14 14 12 12 13 13 13 13 13 13 12 13
22 21 21 20 19 20 20 20 19 19 19 19 19 18 18 17 16 15 15 15 14 14 13 12 12 12 12 12 12 12 12 13
22 22 21 20 20 19 19 20 19 18 19 19 19 18 18 17 16 15 15 15 14 13 13 12 12 12 12 12 12 12 12 12
22 22 22 21 20 19 19 19 18 18 18 17 18 18 17 17 16 16 15 14 13 12 12 12 12 12 12 11 11 11 11 12
22 21 21 21 20 20 18 19 18 18 17 16 17 17 17 16 16 16 14 14 13 13 12 11 12 12 11 11 10 10 11 11
22 22 22 22 21 20 18 18 17 17 17 16 15 15 15 15 15 15 14 13 12 12 12 12 11 11 11 11 10 10 10 11
22 22 22 21 20 20 18 17 17 16 16 16 14 14 15 14 14 14 13 12 12 11 11 11 11 11 11 10 10 10 10 10
21 22 22 21 21 21 19 18 17 17 16 15 14 14 13 13 13 13 12 12 12 11 11 11 11 11 10 11 10 10 10 10
21 22 21 22 21 20 19 19 18 17 15 14 14 14 13 13 12 12 12 11 12 12 12 11 11 11 10 10 10 9 10 9
22 21 22 21 20 20 19 19 19 18 17 14 13 13 12 12 12 12 12 11 11 11 11 11 11 10 10 10 10 11 9 9
20 20 20 21 21 20 19 19 19 18 16 15 14 13 12 13 12 12 11 11 11 11 11 10 11 11 10 10 10 10 11 10
19 19 20 20 21 19 19 19 18 17 16 15 14 13 13 12 12 11 11 11 11 11 11 11 11 10 11 10 10 10 10 10
19 18 18 18 19 19 19 18 18 18 16 15 13 12 12 12 11 11 11 11 11 10 11 10 11 10 11 10 10 11 11 12
14 14 17 18 19 19 18 18 17 16 16 15 14 13 13 12 11 11 10 10 10 10 10 10 11 10 10 10 10 10 10 11

GFSFLT2_850_temp_105.txt.gz
Temp
23 23 22 22 21 21 21 20 20 19 18 18 18 17 17 16 16 16 16 16 15 15 15 15 15 15 15 15 14 14 14 14
23 23 22 22 21 21 21 20 20 19 18 18 18 17 17 16 16 16 15 15 15 15 15 14 14 14 14 14 14 14 13 13
23 22 22 22 22 21 21 20 19 19 18 18 18 17 17 16 16 15 15 15 14 15 14 14 14 14 14 14 14 14 14 13
22 22 22 22 22 22 21 20 20 19 18 18 18 17 17 16 16 15 15 14 14 14 14 14 14 14 14 14 14 15 13 13
22 22 21 21 21 22 21 21 20 19 18 18 18 17 17 16 16 15 15 14 14 14 14 14 14 14 14 14 14 14 15 14
21 21 21 20 21 21 21 21 20 20 19 19 18 17 17 16 16 15 15 15 14 14 14 14 14 14 14 14 13 14 13 13
22 21 21 20 20 20 21 21 21 20 19 19 18 17 17 17 16 15 15 15 15 14 14 14 13 13 13 14 13 13 13 12
20 21 21 20 20 20 20 20 21 20 20 19 18 18 17 17 16 16 15 15 15 14 14 14 13 13 13 13 13 13 13 12
19 20 21 20 20 20 20 19 20 20 20 19 18 18 17 17 16 16 16 15 14 14 13 13 12 12 12 12 12 12 12 12
21 20 20 20 20 20 20 20 19 19 19 19 18 17 17 16 16 16 16 15 14 13 13 12 12 13 12 12 12 11 11 11
20 21 20 19 19 19 20 20 20 19 19 18 18 17 17 15 15 15 15 14 14 13 12 12 12 12 12 12 12 11 11 10
20 20 21 20 20 20 19 19 19 19 18 17 17 17 17 15 15 15 14 14 13 12 12 12 12 12 11 11 11 11 11 11
20 20 20 21 19 20 19 19 20 19 18 17 17 16 16 16 15 14 13 13 13 13 12 11 12 11 11 11 11 10 10 10
20 20 20 20 21 21 20 20 20 20 18 17 17 16 16 15 15 14 13 13 13 12 12 11 11 11 11 10 10 10 10 10
20 19 20 20 20 20 20 18 18 18 17 17 17 16 15 14 14 13 13 12 12 12 12 11 12 11 11 10 10 10 10 10
19 20 20 19 19 20 20 20 19 19 18 18 17 17 15 14 13 13 12 12 12 12 12 11 12 12 10 11 10 11 10 9
19 20 21 20 20 19 20 19 19 20 18 18 17 17 15 14 13 12 12 12 12 12 12 12 12 11 11 11 10 10 10 10
19 20 21 21 20 19 19 20 19 18 18 18 18 17 15 13 13 12 12 12 12 12 12 11 11 11 11 11 11 10 10 10
17 19 17 17 19 20 19 17 18 18 19 18 17 17 15 13 13 12 12 12 12 11 11 11 11 11 11 10 10 10 10 11
13 14 13 13 14 14 16 17 17 17 18 17 18 17 15 13 13 12 12 12 11 11 11 11 11 10 10 10 10 10 10 9

GFSFLT2_850_temp_108.txt.gz
Temp
22 22 21 21 21 21 20 19 19 18 18 18 17 17 17 17 17 16 16 16 16 16 16 16 16 15 15 15 15 14 14 14
22 21 21 21 21 20 20 19 18 18 18 18 17 17 17 17 17 16 15 15 15 16 15 15 15 15 15 15 14 14 14 14
22 21 21 21 21 20 19 19 19 18 18 18 17 17 16 16 16 16 15 15 15 15 15 15 15 15 15 15 15 14 14 14
22 21 21 21 21 20 19 19 19 19 18 18 17 16 16 16 16 16 15 15 15 15 15 14 14 15 15 14 14 14 14 14
19 21 21 21 21 21 20 19 19 19 19 18 18 17 16 16 15 15 15 15 15 14 14 14 15 15 15 15 14 13 14 14
19 19 20 21 21 20 20 20 19 19 19 18 18 17 16 15 15 15 15 15 15 15 14 14 14 14 15 15 14 14 14 14
19 19 20 20 20 20 20 20 20 20 19 19 18 18 17 16 15 15 15 15 15 15 14 14 14 14 14 14 14 13 13 13
20 19 19 19 19 20 20 20 21 20 20 19 19 19 18 16 15 15 15 15 15 15 14 14 14 14 13 13 13 13 13 12
21 20 19 19 18 18 19 20 20 20 20 20 19 19 19 17 16 15 15 15 14 14 14 13 13 12 13 13 13 13 13 12
20 20 20 20 19 19 19 18 18 19 19 20 19 19 18 18 16 16 15 15 14 14 13 13 13 12 13 13 12 12 12 12
19 20 20 20 20 19 19 19 19 19 18 19 19 18 18 18 16 15 15 14 14 13 13 13 13 12 12 12 12 12 12 12
19 19 19 20 20 19 19 19 19 19 19 18 19 18 18 17 17 15 14 14 14 13 13 13 12 12 12 12 12 12 12 11
19 19 19 19 19 19 19 19 19 19 19 18 18 18 18 17 17 15 14 14 14 14 13 12 12 12 12 12 11 11 11 10
18 19 19 19 18 19 19 20 19 20 20 18 17 18 18 17 17 16 14 14 13 13 13 12 12 11 12 11 10 11 11 11
17 18 19 19 18 18 16 16 17 16 18 19 17 16 17 17 17 16 15 15 13 13 12 12 12 11 11 11 10 10 11 12
16 17 18 19 19 18 15 15 17 19 19 20 18 17 17 17 16 16 15 14 13 13 12 12 12 11 12 11 11 11 10 10
14 17 18 19 19 18 17 16 18 20 20 19 19 18 17 17 16 15 15 14 13 12 12 12 12 12 12 11 11 11 10 9
12 16 18 19 19 18 18 17 18 18 18 18 18 18 17 17 16 15 14 14 13 12 12 12 12 12 12 12 11 11 10 10
9 12 15 16 16 15 15 16 16 18 18 17 17 17 17 18 17 15 14 14 13 12 12 12 12 12 12 11 11 11 11 10
8 10 12 13 12 13 13 13 15 14 15 16 15 16 17 17 17 16 14 14 13 12 12 12 12 12 11 11 11 11 10 9

GFSFLT2_850_temp_111.txt.gz
Temp
22 21 20 20 20 19 19 19 18 18 18 18 17 17 17 17 17 17 17 17 17 16 16 16 16 16 16 15 15 15 15 14
20 21 21 20 19 18 18 18 18 18 17 17 17 17 17 17 17 16 16 17 17 17 16 16 16 16 16 15 15 15 14 14
19 20 20 19 19 18 18 18 18 18 17 17 17 17 16 16 16 16 16 16 16 16 16 16 16 16 15 15 14 14 14 14
19 19 19 18 18 18 18 18 17 17 17 17 16 17 17 16 16 15 15 15 15 16 16 15 15 15 15 14 14 14 14 13
19 19 19 18 18 18 18 19 18 18 17 17 17 16 16 16 15 15 15 15 15 15 15 15 15 15 15 15 14 14 14 14
19 18 19 19 18 18 19 19 19 19 18 18 17 17 16 16 16 15 15 15 15 15 15 15 15 15 15 15 14 14 14 14
20 19 19 19 19 19 19 19 20 20 19 18 18 17 17 16 16 15 15 15 14 14 15 15 15 14 14 14 14 14 14 14
20 20 20 20 19 19 19 19 20 19 19 19 18 18 18 17 16 16 15 15 14 14 14 14 14 14 14 14 14 14 13 13
18 19 20 19 19 19 19 19 19 20 20 19 18 18 18 17 17 16 16 15 14 14 13 14 13 14 13 13 13 13 13 13
19 19 19 19 20 19 19 19 19 19 18 19 18 18 18 18 17 16 16 16 14 14 13 13 13 13 13 13 12 12 12 12
18 18 19 19 19 19 19 19 19 19 18 19 19 18 19 18 18 17 16 15 15 14 13 13 13 13 12 12 12 12 12 12
18 18 18 18 18 18 19 18 18 18 19 19 18 17 18 18 18 18 16 16 15 14 13 13 13 12 13 12 13 12 12 12
17 18 18 18 18 18 18 18 18 19 19 19 19 17 17 18 17 18 16 16 16 15 14 13 13 12 12 12 12 12 12 12
17 17 18 18 17 18 18 18 19 19 19 19 19 19 17 18 17 18 17 16 15 15 14 13 13 13 12 12 11 11 11 11
15 16 17 17 17 15 15 14 14 15 15 18 19 19 18 17 17 16 17 16 16 16 15 14 13 13 12 12 11 11 11 11
12 15 16 17 17 16 13 15 13 13 18 19 19 19 18 18 17 16 16 16 16 16 15 14 13 13 12 12 11 11 11 10
7 12 13 16 17 16 15 14 15 13 17 18 18 19 19 18 17 17 15 16 16 16 15 14 13 12 12 12 11 11 10 10
5 6 9 13 16 16 15 15 13 13 14 16 17 18 19 18 17 16 16 16 16 16 15 13 13 12 12 12 12 12 11 10
4 5 7 9 14 16 16 13 13 13 14 16 17 15 17 18 18 17 16 16 16 15 14 13 13 12 12 12 12 12 12 12
2 3 7 8 10 13 11 11 12 12 12 13 14 14 16 17 18 17 17 17 16 15 14 13 13 12 12 12 12 12 12 12

GFSFLT2_850_temp_114.txt.gz
Temp
19 20 19 19 19 20 19 19 18 18 18 18 18 18 17 17 17 17 17 16 16 16 16 17 16 16 16 16 16 15 15 14
18 19 19 18 18 19 18 18 18 18 17 17 17 17 17 17 17 17 17 16 16 16 16 16 16 16 16 16 15 15 14 15
18 18 18 17 17 18 18 17 17 17 17 17 17 16 16 16 16 16 16 16 16 16 16 16 16 16 16 15 15 13 15 15
18 18 18 18 16 16 17 17 17 17 17 17 16 15 14 14 15 16 16 16 16 15 15 15 15 14 15 14 14 14 14 14
18 18 18 18 17 16 15 15 15 16 16 15 16 14 15 14 14 15 15 15 15 15 15 15 14 14 14 13 13 13 14 14
16 19 18 19 18 18 18 16 17 18 17 15 15 15 14 14 15 14 14 14 14 14 13 13 13 14 14 13 13 13 14 13
16 16 18 19 19 19 18 18 15 17 18 18 17 17 16 16 15 15 15 14 14 14 13 13 13 13 13 13 13 13 13 13
17 15 15 16 18 19 19 19 17 19 19 18 18 17 16 17 15 14 15 14 14 14 14 13 13 13 13 13 13 13 13 12
17 18 16 16 18 18 19 19 19 18 19 19 18 17 15 17 17 15 14 14 14 14 14 13 13 13 13 13 13 12 12 12
16 17 18 17 18 18 17 18 19 19 19 19 19 18 17 16 17 17 14 14 14 14 14 14 13 13 13 13 13 12 12 12
15 16 17 17 16 16 17 17 16 16 18 19 19 19 18 17 15 17 16 15 16 14 13 14 13 13 13 13 13 12 12 12
15 15 15 16 15 14 14 14 14 14 15 16 19 19 17 17 14 14 16 16 16 15 14 13 13 13 13 12 12 12 12 12
12 15 14 14 14 14 15 14 14 15 15 16 18 18 18 16 15 16 18 18 16 15 14 13 13 13 13 12 12 13 13 11
7 9 11 11 12 14 15 15 14 15 15 15 15 16 18 18 18 18 18 18 15 15 15 13 13 13 13 12 12 12 12 11
5 7 8 11 10 10 14 14 14 14 14 14 14 17 19 19 19 18 18 17 17 14 15 15 13 13 12 12 12 13 14 12
4 6 9 9 8 9 11 15 15 14 13 13 18 18 18 19 19 18 18 17 17 16 14 15 13 13 12 12 13 14 13 13
2 4 7 8 5 6 8 11 14 15 14 13 15 19 18 17 19 18 18 18 17 16 14 14 15 13 14 12 12 12 12 12
4 4 5 7 7 6 7 9 13 15 15 14 13 15 18 18 18 17 17 18 17 17 15 14 15 14 13 12 12 12 11 11
3 4 4 5 6 6 8 8 10 14 15 15 14 13 12 15 17 17 16 17 17 16 16 14 14 14 12 12 12 12 12 11
-1 1 2 4 5 6 7 10 10 13 14 15 14 13 13 13 14 17 16 17 17 17 16 16 14 14 13 13 12 12 12 12

GFSFLT2_850_temp_117.txt.gz
Temp
17 19 19 18 19 19 19 19 19 19 19 18 18 18 18 17 17 17 17 17 17 16 16 16 16 16 16 16 16 16 16 16
17 18 19 18 18 18 18 18 19 19 18 18 18 17 17 17 17 17 16 17 16 16 16 16 16 16 16 16 16 16 16 15
17 17 17 16 16 18 17 17 18 18 18 17 17 17 17 16 16 17 16 16 16 16 16 16 16 16 15 15 15 15 15 16
16 17 16 16 17 16 17 17 17 17 17 17 17 16 15 15 15 16 16 16 16 15 15 16 15 15 15 15 15 14 15 16
16 16 16 17 17 17 16 16 15 16 16 16 17 15 16 15 15 15 16 15 15 15 15 15 15 14 14 13 13 15 15 15
17 16 15 17 18 16 17 17 16 16 15 15 15 15 15 15 15 15 14 14 14 15 14 15 14 15 14 14 14 14 15 15
17 16 16 15 16 16 17 17 16 16 16 15 16 16 16 15 16 16 15 15 14 14 14 14 14 14 14 14 14 14 15 15
17 17 16 15 15 15 15 16 16 15 15 15 15 16 15 16 16 17 16 16 15 15 14 14 14 14 14 13 14 14 14 14
18 17 16 16 15 15 15 15 15 16 15 15 17 16 15 15 16 16 17 17 15 15 14 14 14 14 14 13 13 14 14 14
17 17 16 15 16 16 15 15 15 16 16 15 17 18 16 15 16 16 16 17 15 15 14 14 14 14 14 14 13 13 13 13
15 14 14 14 15 16 15 15 15 15 16 15 15 19 19 16 14 16 16 16 15 14 14 14 14 14 14 14 13 13 13 13
12 12 12 13 14 15 16 15 15 15 15 16 15 15 18 17 14 14 16 16 15 14 14 14 14 14 13 13 13 13 13 13
10 10 10 11 12 14 15 16 15 15 15 15 15 15 15 15 15 15 16 17 17 14 14 14 14 14 14 13 13 13 13 13
7 7 8 9 10 12 14 16 16 16 15 15 15 15 15 15 15 15 15 16 16 14 13 14 14 14 13 13 13 13 13 13
5 5 6 6 7 8 10 12 15 16 15 15 15 15 15 15 15 16 15 16 17 14 13 14 13 14 14 13 13 15 16 14
4 4 4 4 5 6 8 10 14 16 16 14 15 15 15 15 15 15 15 16 16 18 16 15 14 14 13 14 14 16 17 16
2 2 2 3 4 4 5 7 10 12 14 15 15 15 15 15 15 15 14 14 17 18 16 14 13 13 13 13 13 14 14 15
0 0 1 1 2 2 3 5 7 9 12 15 15 14 14 15 14 14 14 14 14 16 17 15 13 12 13 12 12 13 14 14
-2 -2 -1 -1 0 1 4 5 6 7 9 13 14 14 14 14 13 14 14 14 16 16 16 15 12 13 13 13 12 13 13 14
-4 -4 -3 -3 1 3 5 6 5 6 8 13 14 15 14 14 14 13 14 13 15 16 15 15 14 14 13 13 12 13 13 13